Location: Cheching
(60.0667°N, 164.2167°W)
Time: 12:58:40
(UTC+00:00)

RS-44 - Visible Passes

Search period start: 28 June 2022 00:00
Search period end: 08 July 2022 00:00
Orbit: 1175 x 1509 km, 82.5° (Epoch: 27 June)

Date Brightness Start Highest point End Pass type
(mag) Time Alt. Az. Time Alt. Az. Time Alt. Az.
28 Jun ? 11:02:36 10° W 11:09:23 25° NW 11:16:25 10° NNE visible
29 Jun ? 11:27:51 10° WNW 11:34:09 21° NNW 11:40:37 10° NNE visible
30 Jun ? 09:54:36 10° WSW 10:02:15 36° NW 10:10:16 10° NNE visible
30 Jun ? 11:53:12 10° WNW 11:59:01 19° NNW 12:04:58 10° NNE visible
01 Jul ? 10:19:33 10° W 10:26:47 29° NW 10:34:18 10° NNE visible
02 Jul ? 10:44:43 10° W 10:51:27 24° NNW 10:58:24 10° NNE visible
03 Jul ? 11:10:01 10° WNW 11:16:15 21° NNW 11:22:38 10° NNE visible
04 Jul ? 11:35:22 10° WNW 11:41:10 19° NNW 11:47:03 10° NNE visible
05 Jul ? 10:01:39 10° W 10:08:51 28° NW 10:16:16 10° NNE visible
05 Jul ? 12:00:40 10° NW 12:06:09 17° N 12:11:41 10° NNE visible
06 Jul ? 10:26:51 10° W 10:33:33 23° NNW 10:40:24 10° NNE visible
07 Jul ? 10:52:12 10° WNW 10:58:24 20° NNW 11:04:39 10° NNE visible
